FW0065 Weather Reports


time (UTC)temp
C
wind
direction
speed
KPH
gust
KPH
rain 1hr
cm
rain 24hr
cm
rain mn
cm
humidity
%
barometer
mb
20260510022005 22 22 1.6 3.2 0.00 0.00 0.00 34 1027.5
20260510021005 23 159 1.6 4.8 0.00 0.00 0.00 35 1027.7
20260510020005 22 40 1.6 3.2 0.00 0.00 0.00 35 1027.9
20260510015026 23 97 0.0 3.2 0.00 0.00 0.00 36 1028.0
20260510014005 23 43 1.6 4.8 0.00 0.00 0.00 34 1028.2
20260510013005 22 32 0.0 3.2 0.00 0.00 0.00 38 1028.4
20260510012006 22 284 1.6 8.0 0.00 0.00 0.00 40 1028.7
20260510011026 22 317 1.6 9.7 0.00 0.00 0.00 39 1028.8
20260510010025 22 316 1.6 4.8 0.00 0.00 0.00 41 1029.0
20260510005005 21 328 0.0 4.8 0.00 0.00 0.00 41 1029.0
20260510004027 21 285 1.6 8.0 0.00 0.00 0.00 44 1029.1
20260510003005 21 354 0.0 4.8 0.00 0.00 0.00 44 1029.3
20260510002004 20 309 1.6 3.2 0.00 0.00 0.00 46 1029.2
20260510001027 20 311 1.6 6.4 0.00 0.00 0.00 48 1029.3
20260510000026 20 25 0.0 3.2 0.00 0.00 0.00 49 1029.3
20260509235006 19 49 0.0 3.2 0.00 0.00 0.00 50 1029.3
20260509234005 18 112 0.0 1.6 0.00 0.00 0.00 53 1029.1
20260509233006 17 207 1.6 4.8 0.00 0.00 0.00 54 1029.1
20260509232005 17 204 0.0 3.2 0.00 0.00 0.00 58 1029.0
20260509231025 16 199 0.0 3.2 0.00 0.00 0.00 60 1029.1
20260509230007 15 190 0.0 3.2 0.00 0.00 0.00 62 1029.2
20260509225026 14 184 0.0 3.2 0.00 0.00 0.00 64 1029.2
20260509224026 13 183 0.0 1.6 0.00 0.00 0.00 66 1029.2
20260509223006 12 182 0.0 1.6 0.00 0.00 0.00 68 1029.2
20260509222004 11 180 0.0 3.2 0.00 0.00 0.00 72 1029.0
20260509221005 10 182 0.0 6.4 0.00 0.00 0.00 74 1028.9
20260509220004 9 176 1.6 3.2 0.00 0.00 0.00 78 1028.9
20260509215005 8 181 1.6 3.2 0.00 0.00 0.00 80 1028.9
20260509214005 7 0 0.0 0.0 0.00 0.00 0.00 83 1028.9
20260509213006 6 0 0.0 0.0 0.00 0.00 0.00 88 1028.9
20260509212025 5 0 0.0 0.0 0.00 0.00 0.00 90 1028.7
20260509211006 3 0 0.0 0.0 0.00 0.00 0.00 90 1028.4
20260509210005 2 207 0.0 1.6 0.00 0.00 0.00 91 1028.4
20260509205006 2 0 0.0 0.0 0.00 0.00 0.00 90 1028.3
20260509204004 2 0 0.0 0.0 0.00 0.00 0.00 90 1028.2
20260509203005 2 0 0.0 0.0 0.00 0.00 0.00 90 1028.1
20260509202025 2 0 0.0 0.0 0.00 0.00 0.00 90 1027.9
20260509201005 2 0 0.0 0.0 0.00 0.00 0.00 90 1027.9
20260509200005 2 0 0.0 0.0 0.00 0.00 0.00 89 1027.7
20260509195004 2 0 0.0 0.0 0.00 0.00 0.00 89 1027.6
20260509194004 2 0 0.0 0.0 0.00 0.00 0.00 89 1027.4
20260509193004 2 0 0.0 0.0 0.00 0.00 0.00 89 1027.3
20260509192005 2 0 0.0 0.0 0.00 0.00 0.00 89 1027.3
20260509191005 2 0 0.0 0.0 0.00 0.00 0.00 88 1027.1
20260509190006 2 0 0.0 0.0 0.00 0.00 0.00 88 1027.0
20260509185004 2 0 0.0 0.0 0.00 0.00 0.00 87 1026.9
20260509184025 2 0 0.0 0.0 0.00 0.00 0.00 87 1026.7
20260509183005 2 0 0.0 0.0 0.00 0.00 0.00 87 1026.7
20260509182004 2 0 0.0 0.0 0.00 0.00 0.00 86 1026.7
20260509181006 2 0 0.0 0.0 0.00 0.00 0.00 86 1026.6
20260509180007 2 0 0.0 0.0 0.00 0.00 0.00 86 1026.4
20260509175004 2 0 0.0 0.0 0.00 0.00 0.00 85 1026.4
20260509174025 2 0 0.0 0.0 0.00 0.00 0.00 85 1026.4
20260509173004 3 0 0.0 0.0 0.00 0.00 0.00 86 1026.4
20260509172004 3 0 0.0 0.0 0.00 0.00 0.00 85 1026.3
20260509171004 3 0 0.0 0.0 0.00 0.00 0.00 85 1026.2
20260509170004 3 0 0.0 0.0 0.00 0.00 0.00 84 1026.2
20260509165006 3 0 0.0 0.0 0.00 0.00 0.00 84 1026.2
20260509164004 3 0 0.0 0.0 0.00 0.00 0.00 83 1026.3
20260509163027 3 0 0.0 0.0 0.00 0.00 0.00 83 1026.3
20260509162004 3 0 0.0 0.0 0.00 0.00 0.00 82 1026.4
20260509161004 3 0 0.0 0.0 0.00 0.00 0.00 82 1026.4
20260509160006 3 0 0.0 0.0 0.00 0.00 0.00 82 1026.3
20260509155004 3 0 0.0 0.0 0.00 0.00 0.00 82 1026.3
20260509154004 3 0 0.0 0.0 0.00 0.00 0.00 81 1026.3
20260509153004 3 207 0.0 3.2 0.00 0.00 0.00 81 1026.4
20260509152004 4 201 0.0 3.2 0.00 0.00 0.00 80 1026.4
20260509151025 4 197 0.0 1.6 0.00 0.00 0.00 80 1026.4
20260509150006 4 204 0.0 1.6 0.00 0.00 0.00 80 1026.4
20260509145006 4 211 0.0 3.2 0.00 0.00 0.00 80 1026.4
20260509144004 4 221 0.0 1.6 0.00 0.00 0.00 80 1026.4
20260509143004 4 0 0.0 0.0 0.00 0.00 0.00 80 1026.4
20260509142006 4 226 0.0 1.6 0.00 0.00 0.00 80 1026.4
20260509141004 4 0 0.0 0.0 0.00 0.00 0.00 79 1026.4
20260509140005 5 0 0.0 0.0 0.00 0.00 0.00 78 1026.4
20260509135004 5 0 0.0 0.0 0.00 0.00 0.00 78 1026.4
20260509134005 5 0 0.0 0.0 0.00 0.00 0.00 77 1026.3
20260509133006 5 0 0.0 0.0 0.00 0.00 0.00 76 1026.4
20260509132004 5 226 0.0 1.6 0.00 0.00 0.00 76 1026.4
20260509131004 5 225 0.0 1.6 0.00 0.00 0.00 76 1026.3
20260509130005 6 225 0.0 1.6 0.00 0.00 0.00 76 1026.3
20260509125004 6 0 0.0 0.0 0.00 0.00 0.00 75 1026.2
20260509124025 6 0 0.0 0.0 0.00 0.00 0.00 74 1026.1
20260509123006 6 0 0.0 0.0 0.00 0.00 0.00 73 1026.0
20260509122004 6 0 0.0 0.0 0.00 0.00 0.00 72 1025.9
20260509121004 6 0 0.0 0.0 0.00 0.00 0.00 71 1025.9
20260509120004 6 0 0.0 0.0 0.00 0.00 0.00 71 1025.9
20260509115006 7 226 0.0 1.6 0.00 0.00 0.00 69 1025.7
20260509114004 7 0 0.0 0.0 0.00 0.00 0.00 68 1025.7
20260509113004 7 230 0.0 3.2 0.00 0.00 0.00 68 1025.7
20260509112005 7 233 0.0 1.6 0.00 0.00 0.00 66 1025.6
20260509111025 8 238 1.6 3.2 0.00 0.00 0.00 65 1025.6
20260509110004 8 273 0.0 1.6 0.00 0.00 0.00 65 1025.6
20260509105004 8 291 0.0 1.6 0.00 0.00 0.00 66 1025.6
20260509104025 8 0 0.0 0.0 0.00 0.00 0.00 68 1025.6
20260509103006 8 0 0.0 0.0 0.00 0.00 0.00 65 1025.8
20260509102025 8 0 0.0 0.0 0.00 0.00 0.00 63 1025.6
20260509101004 8 0 0.0 0.0 0.00 0.00 0.00 62 1025.6
20260509100005 9 294 0.0 1.6 0.00 0.00 0.00 62 1025.5
20260509095026 9 296 0.0 1.6 0.00 0.00 0.00 62 1025.4
20260509094004 10 296 0.0 1.6 0.00 0.00 0.00 61 1025.2
20260509093004 10 0 0.0 0.0 0.00 0.00 0.00 59 1025.2
20260509092004 10 0 0.0 0.0 0.00 0.00 0.00 60 1025.1
20260509091004 11 0 0.0 0.0 0.00 0.00 0.00 58 1025.0
20260509090005 11 303 0.0 1.6 0.00 0.00 0.00 57 1024.9
20260509085004 11 306 0.0 1.6 0.00 0.00 0.00 56 1024.7
20260509084025 12 306 0.0 1.6 0.00 0.00 0.00 55 1024.6
20260509083025 12 313 0.0 3.2 0.00 0.00 0.00 55 1024.4
20260509082004 13 0 0.0 0.0 0.00 0.00 0.00 53 1024.2
20260509081004 13 0 0.0 0.0 0.00 0.00 0.00 52 1024.0
20260509080025 13 0 0.0 0.0 0.00 0.00 0.00 50 1023.9
20260509075004 15 0 0.0 0.0 0.00 0.00 0.00 47 1023.7
20260509074004 15 0 0.0 0.0 0.00 0.00 0.00 46 1023.6
20260509073005 16 0 0.0 0.0 0.00 0.00 0.00 43 1023.5
20260509072024 17 314 0.0 3.2 0.00 0.00 0.00 40 1023.4
20260509071003 18 295 0.0 3.2 0.00 0.00 0.00 37 1023.3
20260509070004 19 293 0.0 4.8 0.00 0.00 0.00 35 1023.2
20260509065004 20 350 0.0 3.2 0.00 0.00 0.00 35 1023.1
20260509064004 20 346 0.0 4.8 0.00 0.00 0.00 34 1023.1
20260509063004 20 330 1.6 4.8 0.00 0.00 0.00 34 1022.9
20260509062004 20 3 0.0 3.2 0.00 0.00 0.00 33 1022.8
20260509061025 21 271 1.6 3.2 0.00 0.00 0.00 32 1022.7
20260509060004 21 311 1.6 3.2 0.00 0.00 0.00 33 1022.7
20260509055004 21 298 1.6 6.4 0.00 0.00 0.00 32 1022.7
20260509054005 21 324 0.0 1.6 0.00 0.00 0.00 32 1022.6
20260509053004 21 20 0.0 3.2 0.00 0.00 0.00 32 1022.6
20260509052025 21 32 0.0 3.2 0.00 0.00 0.00 33 1022.5
20260509051004 21 334 0.0 3.2 0.00 0.00 0.00 31 1022.5
20260509050005 22 341 1.6 4.8 0.00 0.00 0.00 31 1022.5
20260509045005 22 27 1.6 3.2 0.00 0.00 0.00 32 1022.5
20260509044005 22 273 1.6 3.2 0.00 0.00 0.00 31 1022.6
20260509043005 23 345 0.0 3.2 0.00 0.00 0.00 31 1022.6
20260509042026 22 357 1.6 3.2 0.00 0.00 0.00 31 1022.6
20260509041004 23 317 1.6 6.4 0.00 0.00 0.00 31 1022.6
20260509040004 22 340 1.6 6.4 0.00 0.00 0.00 30 1022.6
20260509035025 22 273 1.6 11.3 0.00 0.00 0.00 32 1022.6
20260509034026 22 327 1.6 6.4 0.00 0.00 0.00 31 1022.6
20260509033005 22 253 3.2 9.7 0.00 0.00 0.00 34 1022.7
20260509032005 22 336 0.0 6.4 0.00 0.00 0.00 33 1022.7
20260509031007 23 303 1.6 6.4 0.00 0.00 0.00 33 1022.8
20260509030005 22 272 1.6 11.3 0.00 0.00 0.00 34 1023.0
20260509025005 22 331 0.0 8.0 0.00 0.00 0.00 34 1023.1
20260509024005 22 299 1.6 8.0 0.00 0.00 0.00 34 1023.3
20260509023005 22 306 1.6 9.7 0.00 0.00 0.00 36 1023.5